Weather History for Eastover, SC

Change the Weather History Date:

Wednesday, November 21, 2012

  Actual Average Record
Temperature  
Mean Temperature 50 °F -  
Max Temperature 64 °F 63 °F 79 °F (2011)
Min Temperature 35 °F 42 °F 26 °F (2000)
Degree Days  
Heating Degree Days 16    
Moisture  
Dew Point 38 °F    
Average Humidity 74    
Maximum Humidity 100    
Minimum Humidity 32    
Precipitation  
Precipitation 0.00 in - - ()
Sea Level Pressure  
Sea Level Pressure 30.12 in    
Wind  
Wind Speed 2 mph (North)    
Max Wind Speed 12 mph    
Max Gust Speed -    
Visibility 9 miles    
Events Fog    
Averages and records for this station are not official NWS values.
T = Trace of Precipitation, MM = Missing Value Source: NWS Daily Summary

Daily Weather History Graph

Daily Weather History Graph

Search for Another Location

Airport:

Trip Planner

Search our weather history database for the weather conditions in past years. The results will help you decide how hot, cold, wet, or windy it might be!

Date:

Astronomy

Nov. 21, 2012 Rise Set
Actual Time 7:01 AM EST 5:16 PM EST
Civil Twilight 6:34 AM EST 5:43 PM EST
Nautical Twilight 6:04 AM EST 6:13 PM EST
Astronomical Twilight 5:34 AM EST 6:43 PM EST
Moon 1:16 PM EST (11/21) 12:36 AM EST (11/21)
Length of Visible Light 11h 08m
Length of Day
10h 14m
First Quarter, 61% of the Moon is Illuminated
Nov 21
First Quarter
Nov 28
Full
Dec 6
Last Quarter
Dec 13
New
Dec 20
First Quarter

Hourly Weather History & Observations

Time (EST) Temp. Windchill Dew Point Humidity Pressure Visibility Wind Dir Wind Speed Gust Speed Precip Events Conditions
12:48 AM 39.2 °F - 37.4 °F 93% 30.10 in 2.5 mi Calm Calm - N/A   Clear
12:50 AM 37.4 °F - 37.4 °F 100% 30.10 in 1.8 mi Calm Calm - N/A   Clear
12:55 AM 37.6 °F - 37.2 °F 99% 30.10 in 1.8 mi Calm Calm - N/A   Clear
12:56 AM 37.4 °F - 37.4 °F 100% 30.10 in 2.0 mi Calm Calm - N/A   Clear
12:58 AM 37.4 °F - 37.4 °F 100% 30.10 in 3.0 mi Calm Calm - N/A   Clear
1:55 AM 37.9 °F - 37.8 °F 99% 30.09 in 10.0 mi Calm Calm - N/A   Clear
2:55 AM 37.4 °F 34.9 °F 37.0 °F 99% 30.09 in 10.0 mi West 3.5 mph - N/A   Clear
3:55 AM 37.2 °F 34.7 °F 36.9 °F 99% 30.09 in 10.0 mi NNW 3.5 mph - N/A   Clear
4:55 AM 35.8 °F - 35.6 °F 99% 30.09 in 10.0 mi Calm Calm - N/A   Clear
5:55 AM 37.2 °F - 36.9 °F 99% 30.10 in 10.0 mi Calm Calm - N/A   Clear
6:55 AM 36.5 °F - 36.1 °F 99% 30.12 in 10.0 mi Calm Calm - N/A Fog Patches of Fog
7:55 AM 43.3 °F - 42.8 °F 98% 30.14 in 10.0 mi Calm Calm - N/A   Mostly Cloudy
8:55 AM 48.6 °F - 44.4 °F 86% 30.16 in 10.0 mi Calm Calm - N/A   Mostly Cloudy
9:55 AM 54.3 °F - 43.9 °F 68% 30.17 in 10.0 mi North 4.6 mph - N/A   Mostly Cloudy
10:55 AM 58.6 °F - 43.2 °F 56% 30.16 in 10.0 mi North 9.2 mph - N/A   Scattered Clouds
11:55 AM 60.4 °F - 37.0 °F 42% 30.15 in 10.0 mi NNE 10.4 mph - N/A   Scattered Clouds
12:55 PM 60.4 °F - 40.5 °F 48% 30.12 in 10.0 mi North 8.1 mph - N/A   Scattered Clouds
1:55 PM 63.0 °F - 39.0 °F 41% 30.11 in 10.0 mi North 9.2 mph - N/A   Mostly Cloudy
2:55 PM 64.4 °F - 34.9 °F 33% 30.10 in 10.0 mi NNW 11.5 mph - N/A   Scattered Clouds
3:55 PM 64.2 °F - 34.0 °F 32% 30.10 in 10.0 mi North 8.1 mph - N/A   Scattered Clouds
4:55 PM 61.0 °F - 35.6 °F 39% 30.11 in 10.0 mi NNE 4.6 mph - N/A   Clear
5:55 PM 53.4 °F - 36.9 °F 53% 30.12 in 10.0 mi Calm Calm - N/A   Clear
6:55 PM 48.0 °F - 37.8 °F 68% 30.14 in 10.0 mi NW 3.5 mph - N/A   Clear
7:55 PM 46.6 °F - 38.1 °F 72% 30.14 in 10.0 mi NW 3.5 mph - N/A   Clear
8:55 PM 42.6 °F 40.9 °F 36.9 °F 80% 30.14 in 10.0 mi North 3.5 mph - N/A   Clear
9:55 PM 51.3 °F - 35.4 °F 55% 30.15 in 10.0 mi NE 5.8 mph - N/A   Clear
10:55 PM 50.9 °F - 34.0 °F 52% 30.16 in 10.0 mi NNE 4.6 mph - N/A   Clear
11:55 PM 44.1 °F 42.5 °F 33.3 °F 66% 30.17 in 10.0 mi North 3.5 mph - N/A   Clear